Location: Châteauvieux
(47.2310°N, 1.3828°E)
Time: 03:19:00
(UTC+00:00)

Cosmos 468 Rocket - Pass Details

Date: 15 May 2026
Orbit: 740 x 773 km, 74.0° (Epoch: 8 June)

Event Time Altitude Azimuth Distance (km) Brightness Sun altitude
Exits shadow 22:30:14 43° 192° (SSW) 1,083 4.4 -21.3°
Maximum altitude 22:32:02 82° 111° (ESE) 784 3.9 -21.4°
Drops below altitude 10° 22:37:18 10° 24° (NNE) 2,315 7.1 -21.7°
Sets 22:39:40 0° 24° (NNE) 3,241 8.0 -21.8°
